Theta_e
350 351 354 357 356 358 359 361 364 364 364 364 365 365 365 365 364 364 363 364 364 365 365 365 365 364 364 365 365 365 364 366 366 366 365 365 366 366 365 365 364 363 365 363 362 360 360 359 361 361 361 361 361 359 360 360 360 361 361 361 360 359 360 358 358 362 360 359 359 358 361 361 359 361 362 363 363 362 362 362 360 356 355 357 359
350 353 355 358 361 360 360 363 364 363 363 364 364 365 365 364 365 365 365 364 364 364 364 364 364 364 364 364 364 364 365 365 365 365 365 365 365 365 364 364 364 364 364 363 362 361 360 361 361 362 361 361 361 360 360 361 362 361 360 361 360 359 359 359 361 360 359 359 359 358 359 360 360 360 361 361 362 363 363 362 361 357 355 359 360
353 354 356 359 360 361 361 363 363 363 364 364 364 364 364 364 364 365 364 364 364 363 363 363 363 364 364 364 363 365 365 365 364 365 364 364 365 365 364 364 364 364 364 363 362 360 362 362 361 361 361 361 361 359 359 360 361 359 359 360 359 359 359 358 359 359 361 360 360 361 361 360 359 361 361 362 363 363 363 362 360 359 357 360 359
353 354 357 360 362 362 363 363 363 363 364 364 363 363 364 364 364 364 364 364 363 363 363 362 362 362 363 363 364 365 364 364 363 364 364 364 365 365 364 363 364 363 363 363 362 361 360 361 361 359 361 360 361 360 359 361 360 359 359 360 359 359 360 360 359 361 361 361 360 360 357 356 358 361 361 361 362 362 363 361 360 359 360 359 358
354 356 357 359 360 363 364 362 362 363 364 364 364 363 364 364 363 364 364 364 364 363 363 363 363 362 363 363 364 364 363 363 363 363 363 363 363 364 364 363 363 363 363 363 363 362 359 359 360 359 358 361 360 360 361 359 359 359 360 359 359 362 359 360 359 360 362 362 360 359 354 355 355 360 361 361 361 361 361 360 360 359 359 358 358
355 356 358 358 359 362 363 362 363 363 364 364 364 364 364 364 364 364 364 364 363 362 362 361 362 361 361 361 362 363 364 364 364 363 363 363 363 363 363 363 363 363 361 361 363 360 358 360 360 358 357 360 360 361 361 361 360 360 359 359 360 361 360 359 360 361 361 361 360 354 354 354 354 358 361 361 360 360 362 361 360 360 362 361 360
356 357 358 359 359 361 364 364 363 363 363 364 364 364 364 364 364 363 364 364 363 362 363 363 362 361 361 361 361 361 361 361 361 362 362 362 362 360 360 361 362 362 362 362 362 360 360 359 358 360 359 359 359 361 362 363 362 361 360 360 360 360 361 362 362 362 361 356 350 351 351 353 355 356 360 361 361 361 361 360 360 360 360 359 360
357 358 358 358 358 361 364 364 363 363 363 363 364 365 365 365 365 364 364 363 363 364 362 362 362 362 361 362 361 361 359 359 359 360 361 362 362 361 361 362 361 361 362 361 361 362 361 358 358 360 360 358 358 362 363 362 362 363 362 362 361 361 361 361 362 361 360 351 350 351 352 352 354 355 359 360 360 360 360 360 359 360 360 361 360
355 357 358 358 359 362 363 364 363 363 364 363 363 364 364 364 364 363 362 362 363 362 361 361 361 362 362 362 360 359 359 358 358 358 360 360 361 361 360 361 360 361 361 361 360 361 361 362 360 361 361 360 360 361 361 362 362 361 360 359 360 360 361 360 361 360 354 351 351 351 352 352 353 355 359 360 361 361 359 359 358 360 359 360 359
355 356 357 357 358 363 364 364 363 364 365 364 364 363 362 363 362 362 362 362 362 362 362 362 362 362 361 361 360 359 359 357 359 359 360 360 360 360 361 360 360 360 361 361 360 361 361 361 361 362 362 362 362 361 361 362 361 361 360 361 361 361 361 360 361 359 351 352 352 352 354 359 353 354 357 357 360 359 360 360 360 359 358 360 359
355 356 357 358 360 364 365 364 364 365 365 363 363 363 362 363 362 362 362 362 363 362 362 362 362 362 361 361 360 358 356 358 357 357 359 359 359 359 360 361 361 360 361 361 361 361 360 361 362 361 362 362 362 361 362 361 362 361 361 360 360 360 361 360 357 350 350 350 350 352 357 358 351 354 357 359 358 359 361 361 360 359 358 358 358
355 356 357 359 364 365 364 363 364 365 365 363 364 362 361 361 362 361 362 362 362 362 361 360 360 360 361 361 358 356 358 355 355 357 359 358 359 359 359 359 360 360 360 360 360 361 361 362 362 361 361 361 361 361 361 361 361 361 360 360 361 360 361 360 352 350 349 349 351 351 350 351 353 356 357 358 358 358 360 359 358 358 358 358 358
354 356 358 360 361 365 364 364 364 364 363 364 362 361 362 362 363 362 361 361 362 360 361 360 361 360 360 360 355 355 356 355 355 357 358 358 359 358 358 359 358 359 360 361 360 361 361 361 360 360 362 361 360 360 361 361 362 361 361 360 360 361 361 359 350 349 348 348 350 349 349 350 353 358 358 357 357 359 358 358 358 358 358 358 358
353 356 358 360 361 365 365 365 364 363 361 362 363 362 362 362 362 361 361 358 359 361 361 361 361 361 360 360 358 356 356 354 354 356 358 360 358 359 360 359 359 359 360 360 360 361 359 360 360 362 362 362 361 361 360 360 360 361 360 360 361 361 361 358 356 350 351 350 353 350 350 353 352 359 359 358 358 358 358 358 357 358 358 357 357
353 356 359 360 361 361 365 365 365 364 364 364 363 363 362 359 360 361 360 358 360 360 361 361 360 361 361 361 361 357 356 356 354 355 358 358 358 359 360 360 361 359 360 361 361 361 360 361 361 362 361 360 360 360 359 360 361 360 361 361 361 361 360 352 352 351 352 354 353 351 349 350 358 358 359 359 358 358 358 357 357 358 358 357 357
355 357 359 359 359 360 361 365 365 364 364 364 362 363 362 360 360 360 361 360 360 360 361 361 361 360 360 360 358 357 356 356 356 356 356 356 358 359 360 360 360 360 361 361 362 362 362 362 361 360 360 359 359 360 360 360 360 361 361 361 362 361 360 357 352 351 350 351 353 353 350 353 358 358 359 358 358 357 358 358 357 358 357 357 357
356 357 358 358 359 359 361 361 362 364 364 363 362 362 362 361 361 361 360 360 360 361 361 361 361 362 360 361 358 357 355 356 357 354 354 357 359 360 360 360 360 361 361 360 362 361 362 362 361 361 360 359 358 359 359 360 360 360 361 361 362 362 361 358 351 350 351 356 355 352 351 353 358 359 358 358 358 358 358 357 357 358 357 357 358
355 356 357 358 358 359 360 359 359 360 359 361 362 362 362 361 360 360 359 360 362 361 361 361 361 361 361 360 359 360 357 357 355 356 357 359 359 360 360 361 361 360 361 363 361 361 361 361 362 362 361 359 359 360 361 361 360 360 361 360 362 362 362 359 351 352 353 358 352 355 354 357 358 358 358 358 358 358 358 358 358 357 358 358 357
354 357 358 358 358 358 358 358 359 358 358 357 357 360 361 360 360 361 361 362 361 362 361 361 361 361 361 360 360 361 360 360 358 357 359 360 359 359 360 360 361 358 360 361 360 360 360 361 362 362 360 360 359 360 361 360 359 359 359 360 361 362 362 358 352 353 356 353 352 351 352 360 359 358 358 358 358 358 358 358 358 357 357 356 356
354 356 357 357 358 356 357 357 357 357 357 357 357 358 357 359 359 360 361 362 362 362 362 362 361 362 360 361 359 361 360 359 360 356 358 360 360 357 359 359 360 360 360 360 361 360 360 361 361 361 360 361 360 360 361 361 360 358 359 360 361 362 353 350 351 352 352 353 354 350 358 358 358 358 358 358 358 358 358 357 357 357 357 356 356
354 355 355 356 356 356 356 356 356 356 357 357 356 355 357 357 359 358 360 362 362 362 362 361 361 361 360 360 362 356 355 356 357 356 359 357 358 359 359 360 360 360 360 360 360 361 361 361 361 361 360 361 361 361 360 359 358 359 361 361 363 350 350 350 352 354 353 354 354 351 360 358 359 359 358 358 358 358 357 357 357 356 357 356 356
350 351 354 354 355 355 355 356 356 356 356 356 357 358 358 359 356 358 360 360 360 361 361 358 361 357 362 358 357 359 355 357 359 361 360 361 358 359 359 361 361 361 361 360 361 361 361 361 361 360 360 359 361 356 358 359 359 359 360 362 351 349 350 351 351 351 352 351 353 355 358 358 358 358 358 358 358 357 357 357 357 356 356 356 355
346 349 350 353 354 355 356 356 355 355 355 355 358 360 355 354 355 357 359 361 360 360 357 358 354 355 356 355 357 355 356 355 357 360 362 361 360 360 361 361 361 361 360 361 361 362 362 361 360 361 359 361 353 350 351 352 355 361 361 352 348 349 350 350 349 350 349 352 351 359 359 359 358 358 357 357 357 357 358 357 356 356 356 355 355
345 347 348 354 354 354 355 355 355 354 353 354 356 354 353 354 355 356 356 356 356 357 354 354 354 354 355 354 354 356 354 354 359 362 362 356 357 360 363 363 363 362 361 362 361 361 361 360 359 363 361 356 350 349 349 350 350 346 347 348 349 349 349 349 350 349 348 354 351 360 359 359 359 357 357 357 358 358 358 357 356 356 357 356 355
345 347 350 352 353 354 355 355 355 354 353 355 354 352 353 353 354 355 355 354 354 354 353 354 354 354 353 354 354 355 353 353 353 353 353 354 353 353 354 354 355 356 361 351 352 355 353 350 352 355 350 353 352 352 349 348 351 348 347 348 349 348 349 351 349 349 348 349 354 359 360 359 359 358 359 359 359 359 358 357 357 357 357 356 356
346 345 349 351 352 354 355 355 355 354 354 353 352 356 354 352 352 353 354 353 354 353 354 354 354 354 353 356 355 352 352 352 351 351 351 352 352 352 352 353 353 353 356 349 348 349 347 348 349 350 350 352 353 352 352 352 349 349 346 346 348 347 348 347 349 349 349 348 355 360 360 359 359 358 359 359 358 358 358 358 357 357 357 357 355
344 345 348 350 352 354 355 355 354 354 354 354 354 355 351 352 352 354 352 351 352 353 353 354 354 353 354 356 352 350 350 350 350 350 351 351 351 351 351 351 352 353 354 348 349 351 348 347 347 349 349 351 352 352 351 351 348 350 347 347 347 348 347 348 348 348 349 350 358 361 360 360 360 359 359 359 359 359 358 358 358 357 357 357 357
344 345 347 349 351 353 354 355 353 354 353 354 355 353 351 353 354 359 355 358 355 353 353 354 355 354 355 356 355 350 349 349 350 350 349 352 352 352 351 352 351 352 355 352 350 349 349 350 351 350 352 351 352 352 351 352 348 349 348 346 347 347 347 347 348 347 348 349 352 360 360 360 359 359 359 359 359 359 358 358 357 357 357 356 357
343 345 347 348 350 353 354 353 354 354 354 355 354 353 352 353 356 354 352 361 354 354 354 355 353 354 355 356 355 350 350 350 349 348 347 350 350 350 351 351 350 349 350 350 351 349 349 349 350 352 351 353 352 353 352 352 347 346 348 345 346 347 347 347 346 347 348 348 348 356 361 360 360 359 358 358 358 358 358 358 357 356 357 357 357
345 346 347 348 350 353 353 353 354 354 354 355 354 353 353 353 354 354 353 360 355 356 357 355 352 353 353 352 355 351 349 349 348 347 347 347 348 349 349 351 351 350 350 348 350 350 350 350 350 351 353 352 353 353 355 353 348 345 347 346 345 348 349 348 347 348 347 349 350 356 361 360 360 360 359 358 358 357 357 357 357 357 357 357 358
347 347 348 349 352 352 352 353 355 357 355 354 354 353 354 353 354 353 355 356 356 357 356 354 352 350 351 351 353 354 350 349 348 346 347 346 346 346 347 350 349 351 350 351 354 353 351 351 351 351 352 351 352 353 353 352 347 343 346 347 346 348 349 350 349 349 349 348 349 349 357 362 361 360 359 359 359 358 358 358 359 358 358 358 358
347 347 348 350 352 352 352 354 355 357 356 355 356 353 353 353 354 353 355 356 357 354 353 352 354 350 351 350 350 351 353 348 349 347 347 346 346 347 350 349 348 349 351 350 350 351 352 351 353 353 353 353 352 351 350 346 342 342 344 346 346 347 348 349 350 350 350 348 347 349 350 356 361 361 360 360 359 359 359 359 359 358 359 358 358
349 349 349 351 351 352 352 354 356 357 355 354 355 353 353 354 353 352 355 357 356 354 351 351 351 350 349 349 349 351 353 349 348 350 354 346 346 347 347 351 349 348 350 352 351 350 349 349 351 354 355 354 352 347 348 340 340 341 344 345 346 347 348 348 349 350 350 350 348 348 350 351 353 361 361 360 360 360 360 359 360 359 359 360 360
348 349 349 349 352 353 354 354 356 355 354 354 354 352 352 354 353 352 357 355 354 353 352 350 352 351 350 348 349 351 350 348 348 349 348 346 346 346 346 347 348 349 350 351 350 349 350 350 353 351 355 350 345 347 342 340 341 341 342 344 345 346 346 347 347 348 349 349 349 348 349 349 349 350 354 362 361 361 361 361 361 360 361 361 360
349 348 348 349 353 352 354 354 356 354 356 354 353 351 352 354 352 352 354 352 352 352 351 349 350 350 350 349 350 352 349 349 350 349 348 346 346 346 346 347 349 352 350 350 350 350 351 353 353 348 347 345 345 352 345 344 342 340 341 343 343 344 346 346 347 347 348 347 347 350 350 350 349 349 353 349 361 361 361 362 362 362 362 362 362
348 347 348 350 351 352 355 353 355 353 353 353 351 350 351 354 352 355 352 351 352 350 350 349 349 349 350 348 349 352 349 349 350 349 347 346 346 345 346 348 350 352 350 350 353 354 353 354 354 353 347 343 348 344 346 345 345 342 342 342 342 347 343 344 345 346 347 347 348 348 349 350 350 349 357 350 349 354 360 362 362 362 363 363 363
348 347 347 349 349 351 355 353 353 352 352 352 349 349 350 352 352 354 351 351 350 349 350 349 349 349 349 348 349 353 349 350 350 349 346 347 347 346 347 348 352 352 350 351 353 358 353 356 353 357 348 343 345 345 343 344 344 345 343 342 342 346 343 343 344 344 348 345 345 347 348 349 350 359 352 351 350 350 355 359 361 363 363 363 363
347 347 347 349 349 350 352 353 352 352 351 351 349 348 349 351 351 353 354 349 349 348 351 350 348 349 349 348 349 353 351 349 350 349 347 347 347 348 348 350 352 352 352 353 356 355 354 354 350 352 354 348 344 343 342 343 345 344 342 343 342 344 342 342 344 353 345 345 345 345 346 347 349 350 352 353 352 351 350 354 359 361 363 363 363
346 346 347 349 349 350 352 354 351 351 350 351 349 348 349 349 349 350 349 348 347 348 351 349 350 350 348 348 350 353 353 350 351 351 347 349 350 348 348 351 354 354 353 355 354 355 356 350 351 351 353 352 347 345 345 345 344 342 341 342 343 344 342 341 347 348 346 346 347 350 349 348 348 349 350 352 351 350 350 349 348 349 352 359 363
344 344 347 348 348 350 350 352 350 350 350 351 350 347 347 347 346 347 346 348 345 349 350 350 352 350 349 349 351 351 352 352 350 350 349 350 350 349 349 353 356 356 354 353 351 349 348 348 348 355 352 350 356 354 348 349 341 339 346 343 340 343 344 346 344 344 347 346 347 351 350 350 349 350 351 352 352 352 350 349 352 349 350 353 358
342 344 345 346 348 349 350 349 349 350 350 348 347 345 343 343 344 345 344 345 345 348 350 351 352 351 350 350 352 352 352 353 353 350 349 354 353 350 351 355 356 355 352 351 351 353 354 353 355 354 357 346 346 349 344 341 338 336 335 336 337 340 353 350 343 343 344 344 345 347 350 350 350 350 352 353 353 353 352 350 349 349 348 347 349
340 343 344 346 348 349 349 348 349 350 349 349 348 346 344 344 343 344 344 344 346 348 348 351 353 354 352 351 353 352 353 353 356 351 352 351 353 353 354 355 355 355 352 356 357 365 355 352 350 345 347 349 345 349 346 337 333 332 331 330 334 335 341 346 345 343 342 343 343 343 345 347 347 348 350 352 353 354 353 352 351 350 348 347 347
340 342 344 346 347 348 348 348 349 349 349 349 346 345 346 347 346 346 346 345 348 350 351 354 357 355 353 353 354 353 354 355 357 356 354 355 356 355 356 354 355 356 355 350 351 352 352 352 351 348 347 348 353 353 343 336 334 336 335 331 324 327 333 331 334 340 342 341 340 340 343 344 345 344 345 349 351 352 354 353 351 350 349 347 347
340 341 343 345 347 348 347 348 349 349 348 348 349 346 349 348 349 349 348 348 347 353 354 356 358 357 355 356 356 355 356 358 360 359 359 359 358 356 356 355 355 357 352 350 350 350 350 351 352 356 348 342 344 343 354 344 339 335 329 329 326 327 323 325 329 335 337 339 338 338 341 342 341 340 342 343 346 350 351 352 351 350 350 349 349
339 340 343 345 347 347 347 348 348 348 348 352 349 349 353 348 352 353 353 351 354 353 353 353 356 358 357 356 357 358 359 360 360 361 362 360 357 356 356 356 356 356 355 351 350 351 352 352 353 352 348 344 341 343 348 349 341 340 337 333 326 323 323 326 330 329 335 337 335 336 342 342 339 338 340 339 341 346 349 350 350 350 351 351 351
339 340 344 346 347 347 348 348 348 348 348 350 348 350 351 346 347 346 344 345 347 348 349 350 352 356 356 358 359 360 361 361 360 360 362 361 358 358 356 356 357 357 356 353 352 354 351 351 352 352 349 349 344 341 341 347 352 355 341 335 333 332 329 331 328 324 330 342 342 338 335 341 338 339 338 338 338 340 348 348 348 348 350 351 352
339 341 344 345 346 347 348 348 348 348 350 350 349 352 348 346 347 346 345 344 346 348 351 353 354 356 357 357 357 360 360 361 360 359 360 362 359 358 357 356 357 355 362 355 353 354 355 353 355 350 350 357 345 341 343 346 341 346 353 352 348 345 336 334 329 330 323 326 331 335 331 335 337 335 336 337 337 337 340 346 347 346 346 349 350
340 341 343 345 345 347 348 348 348 350 350 351 349 350 348 346 346 346 347 345 345 346 349 352 354 356 355 356 356 358 359 359 359 357 360 361 359 357 357 357 356 356 361 357 353 353 354 355 357 354 356 353 345 343 344 343 339 340 352 348 348 349 341 342 333 331 328 324 327 333 330 333 334 333 335 336 336 336 337 339 344 345 345 346 347
339 341 343 344 346 347 349 348 348 349 349 351 350 349 351 348 347 347 347 348 347 348 352 355 353 356 354 353 355 355 356 357 357 358 358 360 363 358 357 357 356 355 362 359 356 356 354 353 354 353 352 351 349 349 346 344 343 344 344 343 342 342 341 339 339 340 334 326 325 328 328 330 331 331 333 335 337 336 338 339 341 348 348 348 347
339 342 343 344 346 347 348 348 347 348 349 350 351 349 350 351 347 346 347 347 350 349 350 350 350 352 352 352 352 353 354 355 356 357 357 359 361 361 358 358 357 357 361 357 355 356 355 354 354 353 352 354 355 351 349 346 348 347 347 344 341 338 337 336 334 335 334 331 329 330 331 329 324 327 334 333 334 336 336 339 342 345 348 347 347
339 341 342 344 346 347 347 347 348 348 349 349 351 349 349 349 348 347 347 347 348 348 348 347 348 349 350 351 351 352 352 354 355 357 358 359 359 362 360 358 357 359 360 355 354 355 355 355 356 355 355 353 352 353 354 354 350 349 348 346 344 341 338 337 336 336 334 330 328 328 331 334 325 328 330 336 341 337 336 338 340 342 345 346 347
Wind_Speed
3 3 3 6 11 8 5 9 11 11 12 12 12 11 11 11 11 10 10 9 8 8 8 8 8 8 9 9 9 11 12 12 12 12 12 12 13 15 14 14 15 16 15 17 16 14 15 14 15 17 16 16 16 15 14 13 13 12 13 14 14 14 15 13 13 14 12 13 13 14 14 14 13 13 11 13 14 15 14 14 12 8 5 9 14
6 4 2 3 9 8 7 9 10 11 12 12 11 11 10 10 10 10 10 9 8 8 7 7 7 8 8 8 8 10 10 11 12 11 11 12 13 14 14 14 15 15 15 16 16 14 13 15 16 15 15 16 16 14 13 11 13 13 14 14 13 14 14 13 13 12 12 13 13 13 15 13 13 14 14 14 15 14 14 14 13 5 3 12 14
5 3 3 4 9 8 8 9 10 11 11 11 11 10 10 10 10 10 10 9 9 8 7 7 6 7 7 8 8 9 9 10 11 11 11 12 13 13 14 14 14 14 14 15 17 15 14 15 17 16 14 16 15 13 12 13 14 15 15 14 13 14 14 12 13 12 13 13 15 14 14 12 13 14 14 14 14 14 14 14 13 11 7 13 12
7 3 3 6 9 7 7 9 10 10 10 10 10 10 10 9 9 10 10 9 9 8 7 6 6 7 7 7 8 8 9 10 11 11 11 11 12 12 13 13 13 13 13 13 13 17 16 14 14 16 16 15 16 14 11 11 15 16 15 14 14 13 13 13 12 14 13 14 14 11 4 3 8 13 13 13 14 14 14 13 13 12 14 13 14
6 4 2 3 3 3 6 9 10 10 9 9 9 9 9 9 9 9 9 9 8 7 7 6 5 6 7 7 8 8 9 10 10 9 11 11 11 11 11 13 13 12 12 13 13 15 18 15 15 17 15 13 15 12 12 15 16 15 14 14 15 15 14 11 12 11 14 14 13 7 4 4 4 12 13 14 14 14 14 13 13 14 14 14 13
6 4 3 3 3 2 5 8 9 9 9 9 9 8 8 9 9 8 9 9 8 7 7 6 6 5 6 7 8 9 9 9 9 9 8 10 10 10 11 10 12 12 12 12 11 15 16 14 16 16 14 15 13 11 16 16 15 15 14 14 14 15 14 14 13 14 14 13 10 4 4 4 3 6 14 13 14 14 14 14 14 14 14 14 14
7 3 3 3 2 3 4 8 9 9 8 8 8 8 8 9 8 8 8 9 8 8 8 7 7 6 6 7 8 8 9 10 9 9 9 9 10 10 10 9 10 12 12 11 10 13 16 14 17 16 15 14 13 12 14 16 15 15 15 14 14 14 14 13 14 14 12 7 4 3 4 3 3 2 13 13 14 14 14 14 14 14 13 13 14
5 3 3 3 2 5 5 7 9 8 8 8 8 8 8 8 8 8 8 9 9 8 8 7 6 6 6 7 8 8 10 11 7 8 8 9 10 11 10 9 9 11 11 11 10 12 14 16 14 14 15 16 15 15 12 15 16 15 14 14 14 14 14 14 14 13 11 5 4 4 4 4 3 3 10 13 13 14 14 14 13 14 13 13 13
5 4 3 3 3 8 7 7 9 8 8 8 9 9 9 8 8 8 8 9 9 9 8 7 6 6 7 7 8 9 12 9 7 7 7 9 9 10 9 9 9 9 11 11 12 11 14 15 15 14 15 16 15 14 12 14 15 15 14 14 14 15 14 14 12 11 6 4 4 4 4 3 3 3 8 12 13 13 14 12 12 13 13 13 13
5 4 3 2 2 8 8 9 9 9 8 8 8 8 8 8 8 8 8 9 9 9 8 6 6 7 7 7 9 11 10 7 7 9 10 8 9 10 9 9 9 9 10 13 12 12 14 15 15 15 15 14 14 14 13 13 14 14 14 14 14 14 14 13 12 8 4 4 4 3 4 5 2 3 8 12 12 13 12 12 9 10 10 13 13
6 4 3 3 3 8 9 9 9 8 8 8 8 8 7 7 7 7 7 8 8 8 8 7 6 6 7 8 10 13 9 7 8 9 9 8 8 10 11 9 9 9 10 12 13 13 14 14 13 14 15 14 15 15 14 13 13 14 14 14 14 14 14 12 8 3 4 4 4 3 5 7 3 2 10 12 13 12 12 13 13 12 12 12 12
7 5 4 3 7 9 9 9 8 8 9 8 7 6 7 7 6 7 7 8 8 7 7 7 6 6 6 8 11 11 11 4 6 10 9 8 8 9 11 8 8 9 11 12 13 14 14 14 14 13 14 14 13 14 14 14 14 14 14 13 13 13 13 11 5 5 4 4 4 4 4 3 3 5 11 13 10 13 13 13 13 12 12 12 12
7 5 4 3 4 9 9 9 8 10 8 9 8 8 8 8 6 6 6 7 8 8 8 8 7 6 6 7 13 14 12 6 4 9 11 11 9 10 10 11 10 9 11 11 13 14 14 14 14 13 13 13 13 13 13 14 13 12 13 13 14 13 12 11 4 4 4 4 4 4 4 3 3 9 10 11 11 12 12 12 12 11 11 11 11
8 6 4 4 3 9 10 9 9 10 10 9 9 8 9 7 6 7 5 7 7 8 8 7 7 6 6 7 11 15 14 6 5 7 10 11 10 10 10 10 11 12 11 12 13 14 14 14 13 12 12 12 12 12 12 12 13 12 13 13 14 13 13 9 6 3 4 4 3 4 3 3 3 8 9 10 11 11 11 11 11 11 11 11 11
8 7 5 3 2 4 11 10 9 9 8 9 9 9 10 7 5 7 7 5 7 8 8 7 7 6 6 6 10 16 16 10 5 8 9 9 9 10 9 11 11 12 12 12 13 13 13 13 12 12 11 11 12 12 12 11 10 11 13 13 13 12 12 4 4 3 4 4 3 4 3 2 7 8 10 10 10 10 11 11 11 10 10 10 10
8 7 5 3 3 3 4 8 10 9 9 9 9 9 9 8 6 6 6 5 8 8 8 7 7 7 6 7 10 15 16 13 9 7 9 10 10 10 10 10 11 12 13 12 12 12 12 12 12 11 9 10 12 13 11 10 10 11 13 13 13 13 12 6 4 4 4 4 3 3 2 2 8 8 9 9 10 10 10 10 10 10 10 10 9
8 6 5 3 4 3 3 3 6 9 9 9 10 8 8 8 7 7 5 6 8 8 8 7 7 6 6 7 9 14 16 17 14 9 7 10 11 10 10 11 10 12 13 12 12 12 12 11 11 10 8 9 13 12 11 9 10 11 12 12 12 12 11 8 4 3 4 3 3 3 2 2 7 8 9 9 9 9 9 9 9 9 9 9 8
8 6 4 3 4 3 3 4 5 2 4 6 9 8 8 8 8 9 9 8 8 8 8 8 7 6 6 6 8 8 13 17 19 14 11 11 11 11 9 9 10 12 12 12 12 12 12 11 11 10 10 10 12 11 10 10 10 11 12 11 11 12 11 8 4 3 3 3 3 2 2 6 8 8 9 9 9 9 8 8 9 9 8 8 7
6 5 4 4 4 3 3 4 3 3 4 4 3 6 9 9 9 8 7 9 8 8 8 7 7 6 7 9 6 7 8 11 17 17 13 14 11 10 12 10 9 12 12 12 12 11 11 11 10 10 10 10 11 11 10 9 9 9 10 10 11 11 11 6 3 3 3 3 2 2 1 6 6 8 8 8 8 8 8 8 8 8 7 7 7
5 5 5 3 4 4 4 4 4 4 3 3 3 4 5 6 9 6 8 8 8 8 8 6 6 6 9 10 8 7 7 5 12 12 14 14 14 9 11 11 9 11 12 12 11 10 10 10 10 10 10 10 10 10 10 8 7 8 9 10 10 10 5 4 3 3 3 1 2 1 2 5 7 7 7 7 7 7 7 8 7 6 6 6 6
4 4 3 4 4 5 4 4 3 4 3 3 2 2 6 9 5 8 7 8 8 8 7 7 6 6 8 8 7 6 5 4 4 7 10 10 14 14 14 13 9 11 11 10 10 10 9 9 9 10 8 9 9 8 7 6 5 6 9 9 9 5 4 4 4 2 1 1 1 0 3 5 6 6 6 6 6 7 6 6 6 5 5 5 6
6 5 3 4 5 4 5 4 4 3 3 3 2 2 4 3 4 2 3 4 6 6 4 4 4 5 7 6 4 4 4 4 4 4 4 5 9 16 12 11 11 10 11 10 9 9 8 8 8 9 8 8 8 3 3 5 6 6 7 9 5 4 3 4 3 2 1 1 1 2 5 5 5 6 6 5 5 6 5 5 5 4 5 5 5
6 5 4 4 4 4 5 5 4 3 3 3 2 3 3 3 4 3 4 5 4 3 3 4 4 4 4 4 4 4 3 3 2 4 4 8 7 11 13 12 11 11 10 9 8 7 7 7 7 7 7 6 4 3 4 4 1 4 6 5 4 4 3 3 2 2 1 0 0 4 5 5 5 5 5 5 5 5 4 4 3 4 3 4 4
7 6 6 5 5 5 5 5 5 4 3 3 3 4 3 4 4 4 4 3 3 3 3 3 4 4 4 3 4 3 4 4 6 7 7 5 5 9 11 10 10 10 9 5 6 7 6 6 7 6 5 4 3 3 3 3 3 3 3 3 3 3 3 2 3 2 2 1 1 5 4 5 4 4 4 4 4 4 4 3 3 3 2 2 3
6 6 5 6 6 6 6 5 5 4 3 3 4 3 3 4 4 4 3 3 3 3 3 4 3 3 3 3 3 3 4 4 4 5 5 5 5 6 6 5 5 5 7 4 4 4 4 3 3 4 3 4 3 3 3 3 2 2 2 3 3 2 2 3 3 3 1 1 2 5 4 4 4 4 4 4 4 3 3 2 2 2 2 2 1
6 6 7 6 6 6 6 5 6 4 3 3 4 4 4 4 3 3 4 2 3 3 3 3 4 3 3 3 4 4 4 4 4 5 5 5 5 5 5 4 4 4 4 4 4 4 3 3 3 3 3 3 2 2 2 2 1 2 2 2 2 2 3 3 2 2 2 2 2 5 4 3 4 3 3 4 3 3 3 2 2 1 1 1 1
7 6 6 6 6 6 6 6 6 5 4 3 2 3 4 4 3 3 4 3 2 3 3 3 3 3 3 2 4 4 4 4 4 4 4 4 4 4 4 4 4 3 3 4 3 3 2 3 3 2 3 2 3 2 2 1 1 1 0 1 2 2 2 2 2 2 3 2 3 6 4 4 4 4 3 3 3 3 2 2 2 2 1 2 2
6 6 6 6 7 8 7 7 6 6 4 4 3 4 3 4 3 4 4 4 3 3 2 1 2 3 2 3 3 3 4 4 3 3 2 3 3 3 3 3 3 3 2 2 2 2 3 2 2 2 3 3 3 3 3 1 0 1 2 1 1 2 2 2 2 2 2 2 2 4 5 5 4 4 4 4 4 3 3 3 3 3 4 4 4
7 7 6 7 7 7 8 8 7 7 5 5 4 3 3 4 3 3 3 5 3 3 2 2 2 2 2 2 2 3 3 3 3 2 2 3 3 3 3 3 2 2 2 2 2 1 1 1 2 2 2 3 3 4 3 2 2 2 3 3 2 2 2 2 2 3 3 3 2 4 7 6 5 5 5 5 4 5 4 4 4 4 5 5 5
8 8 8 7 7 8 9 9 8 8 7 6 4 4 4 4 4 4 3 3 3 3 2 2 2 3 2 2 2 2 2 3 2 2 3 2 2 2 2 2 1 1 2 0 0 0 0 2 2 2 3 3 4 4 3 4 3 3 4 4 4 4 3 3 3 4 3 3 3 3 7 7 7 6 7 6 6 5 5 6 5 5 6 6 6
8 8 8 7 7 8 8 8 8 8 7 6 5 5 4 4 4 4 3 3 3 3 3 2 2 2 2 2 2 1 2 1 2 2 2 2 2 2 2 1 1 1 0 0 1 1 1 2 2 3 4 4 5 4 3 4 3 4 4 5 5 3 4 3 3 3 3 4 2 3 3 8 8 8 7 7 7 6 6 6 6 6 7 7 7
10 9 7 6 7 9 8 8 8 8 8 7 6 5 5 4 4 4 3 3 3 3 3 3 3 2 1 1 2 1 1 1 2 2 2 2 1 1 1 0 1 1 0 1 1 1 2 2 3 3 4 4 5 5 3 4 4 5 5 6 4 4 4 4 3 4 3 3 2 3 3 3 8 8 8 8 7 7 7 7 7 8 8 8 9
7 9 8 8 9 8 8 8 8 8 8 8 7 5 5 4 4 4 4 4 4 3 3 3 3 2 1 1 1 2 1 2 2 2 2 2 1 1 0 0 1 1 1 1 1 2 1 2 3 3 4 4 3 3 1 1 2 2 4 4 4 4 3 3 4 3 4 3 3 3 3 3 3 6 8 8 8 8 8 8 9 8 9 9 9
7 6 7 8 7 6 6 6 7 9 8 7 6 5 5 4 4 4 4 4 4 4 3 3 3 3 2 2 1 1 1 1 2 2 2 2 1 1 1 1 1 2 2 1 2 1 2 2 4 2 3 1 2 2 1 1 1 1 3 3 4 4 4 4 4 4 3 3 3 3 4 4 3 3 3 7 9 9 10 9 9 10 10 10 10
6 6 9 9 8 7 6 6 7 8 8 7 7 6 5 5 5 5 4 4 4 4 3 3 4 4 3 3 2 1 1 1 2 3 2 2 2 2 2 2 1 1 0 1 1 2 2 3 2 2 2 1 3 1 2 1 3 3 4 4 5 4 4 5 4 3 3 3 2 3 4 4 4 3 4 3 6 9 10 10 11 11 11 11 11
9 8 8 7 8 7 7 6 7 8 7 7 7 6 6 5 5 5 4 4 4 4 4 4 4 4 3 3 2 2 2 2 2 2 3 2 2 2 2 2 1 1 1 1 1 3 3 3 1 0 3 3 3 2 1 1 1 3 4 4 4 4 5 4 4 4 3 2 3 3 3 4 4 4 4 4 4 5 9 10 11 11 12 12 12
10 9 9 8 8 8 8 7 8 8 7 7 7 6 6 5 6 5 5 4 4 4 4 3 4 4 4 4 3 2 2 2 2 2 2 2 2 2 2 2 1 1 2 2 3 3 2 3 3 2 0 1 2 3 3 1 2 2 2 4 4 4 5 5 5 4 2 3 3 3 3 4 3 5 4 4 4 4 6 10 11 12 12 13 13
10 11 10 10 9 8 7 7 7 7 6 7 7 7 6 5 5 5 5 5 4 4 4 4 4 4 4 4 4 3 3 2 2 1 2 2 2 1 1 2 1 1 2 2 3 3 1 1 3 2 1 1 2 3 4 4 2 2 1 2 4 5 6 5 4 2 4 4 3 4 4 3 3 4 4 4 4 4 4 6 9 11 12 13 12
9 11 10 9 8 7 6 7 7 6 6 6 5 5 6 4 3 4 5 4 3 3 4 4 4 4 4 4 5 4 4 3 3 2 2 1 1 1 2 2 1 2 2 2 3 2 1 1 2 3 2 1 3 2 3 3 2 3 3 1 1 2 3 3 3 3 4 4 3 3 3 5 4 3 4 4 4 4 4 4 4 4 6 10 12
9 9 10 9 8 8 6 6 7 7 5 5 5 5 5 5 5 3 3 3 4 4 4 4 4 4 4 5 5 4 4 4 4 3 2 1 1 2 2 2 2 1 2 3 3 2 1 2 3 2 4 3 0 1 0 0 1 2 2 4 1 0 0 3 3 4 3 3 5 3 4 4 4 4 4 4 4 4 4 4 4 5 5 6 10
9 10 10 10 10 9 8 8 7 6 6 6 5 6 5 5 3 5 5 5 5 4 4 4 4 4 4 5 5 4 4 4 4 3 3 2 1 1 2 3 2 2 3 3 2 2 0 0 1 1 1 3 2 1 1 2 2 2 2 3 4 2 0 1 3 3 5 5 4 5 5 4 5 5 5 3 4 4 4 5 5 4 5 5 6
8 10 12 11 9 9 9 8 6 6 7 7 6 5 4 5 5 6 4 5 5 5 4 5 5 4 4 4 4 4 4 4 4 4 3 3 2 2 3 3 3 3 2 2 1 0 2 2 1 2 1 1 2 2 3 1 3 1 2 4 4 6 3 1 3 4 5 5 5 5 5 5 6 5 4 3 4 4 5 5 4 5 5 5 5
12 12 12 11 9 9 8 8 6 7 6 7 6 5 4 4 5 4 6 4 4 5 6 6 5 5 5 5 4 4 4 4 4 4 4 3 3 3 4 4 3 2 1 2 1 2 2 2 2 2 3 2 1 1 1 3 1 1 1 1 2 5 5 5 2 2 4 5 4 5 5 5 7 5 3 3 5 5 5 4 4 4 5 5 5
9 9 10 11 9 8 7 8 7 6 6 6 7 5 6 5 4 8 7 7 6 4 3 4 4 4 5 5 4 4 4 4 4 4 3 3 4 5 3 3 3 2 2 1 1 2 2 1 2 2 2 3 3 1 1 2 2 1 2 1 1 1 3 2 3 6 2 3 4 5 4 5 6 4 2 4 5 4 5 3 4 4 4 5 5
10 10 11 10 8 10 9 9 8 8 7 6 7 6 6 5 5 5 6 5 4 5 4 4 5 6 5 5 6 5 4 4 4 4 3 4 4 4 3 3 2 2 1 1 1 2 1 0 0 1 1 0 2 1 2 2 3 3 5 1 2 2 1 4 3 5 3 1 1 2 3 5 5 4 4 5 3 4 4 4 4 4 5 5 5
11 11 11 11 10 9 8 8 7 6 7 6 7 6 6 7 7 7 7 7 7 7 7 8 6 7 7 6 4 5 5 3 4 4 3 3 4 4 3 3 2 2 2 1 1 1 2 2 0 1 1 1 1 2 2 1 2 3 3 1 4 1 2 2 1 4 6 1 2 2 3 3 4 4 3 4 4 5 3 5 4 5 5 5 6
11 10 9 9 10 10 9 9 8 7 6 6 5 5 5 5 6 7 7 8 9 7 6 7 8 6 5 6 5 4 5 5 4 4 4 4 4 3 3 2 2 2 1 1 1 2 2 2 1 1 2 2 1 1 1 2 3 2 1 0 2 2 3 0 2 0 5 5 3 2 1 1 2 3 4 4 4 4 4 4 5 5 5 5 5
12 10 10 9 11 11 10 9 7 7 6 6 5 5 6 5 5 5 6 7 8 7 7 6 5 5 6 6 5 5 5 5 5 4 4 4 3 4 3 2 2 2 1 2 2 2 2 1 2 3 2 2 2 2 1 1 2 1 1 1 2 0 1 1 2 1 1 2 6 5 2 0 2 3 4 4 4 4 5 4 5 5 6 6 5
12 12 11 11 10 10 10 9 8 7 6 6 6 5 5 5 5 5 5 4 5 6 5 5 6 5 5 4 5 5 5 4 4 4 4 4 3 3 3 3 3 2 1 1 1 1 1 1 2 3 2 2 2 2 3 2 2 1 3 3 3 2 1 2 2 2 1 1 2 2 4 4 1 3 3 3 5 4 4 5 5 5 5 6 5
13 12 11 10 10 9 10 10 9 8 7 7 6 5 5 5 5 5 6 5 4 3 4 6 5 5 5 5 4 5 5 4 3 3 3 3 3 3 3 3 3 2 1 2 1 1 0 1 2 2 2 2 2 3 1 1 1 1 1 2 3 2 4 3 2 4 1 1 0 2 2 2 3 4 3 4 5 3 3 4 5 5 6 6 6
11 11 11 11 10 11 11 11 10 8 8 8 7 6 5 5 6 6 6 6 5 6 5 4 5 4 5 5 5 5 4 5 4 3 4 3 4 3 3 3 3 2 2 2 2 2 2 1 1 1 2 2 2 1 0 1 1 2 1 1 1 1 0 0 3 1 0 1 3 3 2 1 2 4 3 3 4 3 3 3 5 6 6 6 6
Wind_Direction
226 182 203 180 155 157 153 123 110 106 105 102 101 101 104 106 108 106 108 106 100 92 86 87 88 89 87 87 91 95 93 94 101 102 104 106 106 107 105 105 107 113 111 109 112 113 115 112 111 113 109 112 111 109 109 112 107 107 108 103 102 108 110 108 105 109 112 107 103 101 110 115 115 108 102 98 94 93 92 92 90 87 81 91 93
171 191 184 181 152 143 149 119 111 110 107 103 102 102 104 106 108 110 107 106 100 96 92 87 88 90 89 88 91 95 98 102 101 103 107 105 106 109 110 107 105 106 106 109 111 113 120 114 110 106 109 114 110 110 113 108 103 110 110 104 105 107 109 114 109 106 112 102 104 100 97 108 112 116 108 100 97 94 93 93 91 82 79 99 94
141 158 172 170 151 154 140 121 114 110 107 104 103 104 105 107 106 104 104 102 102 100 95 94 91 92 94 93 96 99 102 104 105 104 106 110 109 110 111 111 109 108 110 114 122 127 123 117 117 113 116 114 111 113 112 112 118 114 105 107 113 111 111 122 121 120 97 96 88 79 86 96 108 102 103 102 101 99 97 95 94 90 92 92 94
141 155 156 162 156 151 135 120 116 111 106 106 107 107 108 107 108 109 109 108 109 109 109 108 106 104 104 107 104 104 107 107 106 108 110 110 112 113 113 113 111 111 113 115 116 118 111 113 112 115 114 113 117 119 126 138 116 107 109 112 114 105 91 88 93 96 97 94 92 89 86 72 87 99 103 105 102 100 99 98 99 99 95 87 86
137 139 137 156 141 153 134 123 118 113 111 111 113 115 115 115 113 112 109 110 111 114 117 117 110 114 114 115 108 105 108 106 108 100 109 111 111 111 112 114 115 116 117 119 118 114 115 117 115 112 109 116 123 134 138 108 106 108 110 113 111 99 98 89 91 91 94 87 81 71 74 74 92 102 102 105 104 102 100 98 97 95 94 97 95
137 133 134 123 127 145 133 128 122 121 121 119 117 117 115 113 117 117 116 115 115 111 108 105 116 121 121 119 117 114 114 112 106 105 109 112 111 116 113 112 115 121 117 110 107 103 101 118 118 112 119 124 131 136 111 109 106 112 114 114 111 115 122 124 109 94 88 85 67 58 63 75 73 96 109 105 105 101 98 94 88 84 81 82 81
131 132 128 125 123 145 132 134 130 127 124 121 124 125 123 124 129 128 125 123 122 127 128 131 132 135 130 124 122 123 117 109 107 110 113 114 114 107 103 110 111 113 109 108 109 113 122 117 117 122 128 128 127 114 118 117 113 112 114 112 111 108 103 100 95 88 81 66 60 53 56 59 59 75 109 106 104 102 98 99 100 96 94 88 86
122 123 127 125 116 153 137 137 132 126 129 134 134 131 133 136 132 129 131 129 129 123 124 133 130 123 118 117 121 116 102 93 98 107 124 113 111 107 109 105 110 111 113 108 101 106 119 119 120 124 131 130 128 121 122 121 118 115 111 111 108 107 102 98 97 94 85 72 64 66 65 67 79 65 105 107 103 101 98 95 93 92 90 89 84
126 119 113 124 150 150 145 140 133 135 137 141 135 134 133 130 129 130 126 123 122 124 127 125 125 119 116 117 117 108 95 100 109 98 106 110 116 113 109 110 109 116 118 115 116 122 117 115 118 128 126 123 122 121 124 120 119 117 116 115 113 110 106 101 95 89 80 78 73 73 78 85 86 101 108 102 106 103 100 95 93 92 91 88 87
120 107 111 119 144 151 150 142 141 141 138 134 127 126 126 128 129 125 121 118 117 119 120 118 120 118 118 121 111 97 98 111 117 113 117 119 117 115 118 118 126 120 120 121 127 127 122 123 127 127 122 126 129 125 124 120 116 117 118 115 113 109 106 103 98 91 89 82 73 74 97 101 89 105 120 116 106 103 100 100 101 96 95 92 89
119 116 113 116 141 152 152 143 141 139 136 125 123 125 124 120 120 120 114 112 115 119 123 123 117 127 130 122 122 109 108 138 138 125 121 115 123 121 125 126 131 123 124 123 130 127 123 119 119 124 127 134 133 129 125 122 122 123 121 121 116 111 107 101 87 68 70 69 63 58 92 76 54 54 111 106 109 102 104 101 96 93 93 91 89
122 121 120 124 149 154 147 141 139 136 122 120 122 126 117 118 113 109 111 115 116 119 119 122 123 113 115 125 114 106 107 141 151 131 126 128 130 120 117 125 127 132 126 125 125 124 122 122 128 132 131 130 131 130 126 125 120 123 121 121 116 113 107 97 75 68 66 61 60 57 53 64 57 101 110 99 99 108 101 96 94 95 93 91 88
128 128 124 119 140 153 142 140 140 127 130 133 136 128 124 117 112 101 109 112 120 121 119 124 126 121 124 119 108 110 125 155 149 128 131 137 134 128 132 134 133 130 125 126 130 127 126 126 129 129 126 126 127 126 128 121 116 121 124 123 119 113 108 94 75 72 66 60 57 51 54 57 88 105 102 110 111 97 96 95 96 95 93 90 87
130 130 122 127 145 145 141 142 140 136 139 132 125 118 112 106 110 112 112 124 134 122 123 115 112 111 101 94 100 114 115 135 155 130 129 131 136 137 136 138 139 137 132 135 132 132 129 127 124 121 119 120 121 122 121 119 120 125 123 122 121 115 108 100 89 77 72 65 65 59 54 59 85 106 112 107 102 98 97 98 97 95 94 91 88
132 133 127 125 139 139 145 144 141 136 133 127 124 117 110 107 122 124 125 136 125 125 119 117 111 106 98 105 111 112 118 138 154 132 127 132 138 139 144 143 139 136 133 136 132 128 124 123 120 118 121 122 122 125 128 124 121 126 124 123 120 113 106 88 85 77 68 62 53 60 53 59 106 108 108 108 104 101 98 97 97 96 93 89 87
130 132 128 124 134 140 136 147 142 140 133 126 112 112 117 126 129 125 130 150 130 122 116 112 107 110 123 122 118 116 122 131 138 135 133 141 141 142 141 142 135 135 136 138 130 126 123 119 114 111 110 127 131 131 128 123 120 120 124 125 120 118 117 106 86 67 64 60 62 60 53 104 114 112 109 108 106 102 98 97 98 95 91 86 86
131 131 131 136 121 117 124 128 135 143 132 123 120 128 125 132 141 128 139 171 131 125 120 115 115 113 108 108 106 125 129 136 129 128 131 140 138 135 142 141 142 141 138 132 126 127 123 119 112 101 100 116 131 131 123 122 123 124 125 126 125 126 126 113 86 73 66 67 58 46 52 78 105 110 108 105 103 101 100 100 96 91 88 89 86
132 134 129 124 111 117 117 112 126 112 100 120 128 134 138 137 143 143 168 157 130 125 121 117 117 114 112 106 106 112 127 129 133 135 147 141 136 136 138 137 147 142 133 128 129 128 128 121 110 100 90 104 117 119 124 128 126 125 127 131 131 133 131 115 86 77 76 76 45 51 32 116 113 112 111 110 105 103 103 99 92 87 87 93 86
133 134 128 126 122 120 102 106 115 100 93 100 105 143 147 151 147 167 164 139 135 128 120 121 120 119 115 89 84 97 104 113 123 129 138 129 129 133 136 139 155 138 133 131 130 129 128 120 110 98 97 103 117 119 121 123 121 128 132 136 137 136 128 102 85 73 62 61 44 40 51 116 119 116 114 113 109 106 102 98 93 95 94 83 82
132 133 138 131 128 112 103 106 106 114 112 102 131 128 140 147 149 177 156 137 131 125 114 112 119 120 108 106 88 65 65 85 96 117 125 126 129 137 134 144 145 134 131 128 125 123 125 121 112 104 99 94 104 113 121 124 131 141 137 135 140 123 89 82 81 69 68 95 90 20 129 125 124 120 119 116 115 108 101 94 95 93 89 87 81
139 143 141 146 128 119 119 108 115 117 114 111 90 117 131 148 173 155 138 133 125 117 116 99 97 103 95 81 66 58 44 26 52 88 135 141 134 137 139 139 142 130 122 124 122 118 120 118 113 109 102 105 102 99 104 124 141 130 140 140 117 88 102 86 84 80 58 50 82 317 171 134 126 126 125 120 114 108 101 101 102 100 92 85 79
154 151 159 149 128 133 131 127 122 121 118 99 74 94 137 142 111 91 78 71 108 98 88 99 67 42 60 60 51 51 42 43 46 66 62 100 120 126 121 127 127 126 122 121 117 114 116 114 110 114 117 119 104 63 89 120 131 141 144 122 93 98 93 99 93 98 73 54 77 231 156 142 140 135 131 125 118 112 112 110 107 105 97 89 79
159 160 166 155 144 140 141 137 135 131 115 99 89 92 84 70 80 81 93 102 95 75 55 58 42 53 41 39 52 45 41 39 65 93 99 109 111 113 124 125 123 118 120 117 115 117 115 111 114 117 132 107 56 45 31 15 70 122 107 98 107 96 93 95 112 104 109 51 312 188 162 150 149 145 138 136 128 123 123 122 122 111 101 88 82
166 169 165 154 153 153 149 142 143 137 126 106 100 97 86 85 77 74 93 88 66 71 63 59 54 54 54 56 52 51 38 24 73 56 48 37 62 95 101 103 110 116 104 89 105 118 108 110 125 105 54 44 42 34 27 27 43 61 90 108 107 107 109 130 144 136 133 216 230 186 168 159 148 154 150 146 143 141 136 142 139 124 114 101 83
166 154 158 168 163 158 149 146 143 146 137 133 124 115 107 87 80 88 93 85 81 72 62 64 61 62 61 59 62 61 52 52 49 53 53 56 66 56 49 46 49 48 63 58 42 41 42 30 27 39 46 32 29 20 22 27 30 56 83 105 110 110 126 142 154 150 173 228 237 179 172 165 161 166 169 158 162 153 149 152 141 151 143 115 93
157 166 173 168 170 163 154 147 150 151 153 141 144 143 115 107 98 110 103 88 92 78 61 61 65 62 63 66 69 66 58 57 49 61 57 61 67 60 52 45 45 49 53 62 49 48 42 34 39 36 17 23 18 11 20 33 51 41 71 98 123 134 143 159 160 164 192 219 230 183 180 175 181 187 186 180 179 174 153 162 197 204 174 152 155
175 173 167 170 168 164 156 148 155 153 147 140 146 119 128 125 120 123 117 112 98 89 73 64 67 68 61 73 81 68 66 62 56 56 63 63 68 63 59 48 53 46 43 67 55 39 49 42 34 17 353 359 347 346 1 24 90 98 75 140 140 148 164 172 181 183 208 216 235 186 191 193 198 208 211 204 202 192 180 189 236 234 218 225 217
166 167 170 170 172 169 158 156 154 156 152 152 145 141 138 135 156 151 123 152 121 114 100 101 86 70 85 77 86 79 85 76 68 57 62 74 67 65 68 61 55 55 57 64 52 20 40 38 23 347 349 328 324 319 320 331 188 156 157 221 194 170 182 190 194 207 210 221 252 198 199 204 213 222 228 227 225 214 218 224 233 254 255 253 245
170 171 169 171 176 167 161 158 159 160 155 153 152 153 149 147 154 137 153 161 129 143 149 127 104 95 94 107 106 93 79 87 79 63 68 70 70 66 63 72 56 38 53 48 71 37 16 20 350 333 318 310 298 290 298 284 237 194 183 192 217 187 192 199 210 213 213 218 226 229 202 211 216 221 227 232 229 225 226 236 244 251 255 262 261
176 169 169 174 171 164 168 163 161 159 157 154 150 157 164 159 156 154 172 135 140 142 148 145 117 112 110 113 111 112 111 112 91 62 81 59 67 68 71 54 66 25 51 48 354 79 310 319 313 295 295 286 277 257 234 252 226 211 190 194 209 203 191 199 211 213 218 222 222 234 214 214 220 225 230 235 241 242 237 247 249 254 257 255 260
166 173 172 171 169 165 171 164 158 158 156 155 159 162 164 165 163 154 158 140 134 133 140 139 125 111 122 116 118 132 116 100 98 92 79 79 70 75 55 56 48 355 48 331 359 331 342 269 274 275 276 274 272 272 230 219 224 207 206 195 205 195 193 203 217 219 214 223 240 243 255 222 223 227 231 238 242 251 255 256 256 256 256 263 264
172 176 173 165 168 173 170 163 159 157 158 158 165 162 169 167 163 151 158 150 138 131 139 150 151 128 121 123 135 136 132 111 119 103 109 104 97 76 57 36 290 290 269 267 303 306 264 263 256 264 263 269 274 277 243 205 211 203 192 201 183 198 198 197 212 212 217 219 229 253 266 273 233 232 237 241 244 250 257 260 260 266 269 269 271
176 174 167 165 173 175 171 166 160 160 159 163 168 167 160 163 161 168 162 158 152 134 150 161 141 140 141 146 167 158 162 147 144 143 132 128 129 115 40 270 273 247 237 241 270 268 274 289 289 273 279 269 286 289 171 158 185 197 182 192 179 202 197 198 215 210 214 212 221 240 257 269 296 255 244 244 252 252 253 258 263 265 268 269 272
169 169 166 174 173 175 172 166 164 163 164 163 161 161 166 161 165 166 167 157 157 154 160 143 146 150 155 167 185 218 143 161 149 131 110 136 159 173 209 275 253 234 217 219 263 305 321 305 281 298 295 298 255 346 120 158 263 155 199 187 188 198 191 205 215 213 211 215 212 228 243 255 261 268 288 263 252 257 261 261 263 265 268 273 274
164 168 176 177 173 171 171 174 169 166 163 162 164 167 165 158 162 171 168 166 161 162 151 143 151 157 158 167 184 212 132 201 188 149 141 146 183 209 231 246 279 234 252 272 273 310 264 265 268 290 255 223 31 25 71 155 192 193 203 189 202 193 192 213 214 211 210 212 195 229 237 243 245 254 257 268 269 262 262 266 266 266 268 270 274
172 172 173 172 176 173 173 172 168 168 167 164 164 166 167 161 166 175 163 170 162 166 166 163 158 153 165 165 183 198 165 212 205 145 153 172 189 210 246 268 274 7 351 325 274 281 287 290 275 332 359 338 13 345 338 8 289 215 189 201 201 197 201 213 218 215 210 198 216 231 241 244 248 248 248 246 257 264 266 265 265 268 271 272 273
169 169 169 172 176 174 176 168 173 176 166 163 158 158 159 163 165 171 169 170 168 172 167 156 151 162 168 173 180 192 172 201 204 163 162 189 191 204 242 249 281 31 348 319 306 280 292 323 325 3 108 301 338 324 335 5 292 270 201 174 198 198 208 213 219 210 189 208 223 236 241 241 242 245 244 248 250 259 266 265 267 270 272 272 273
169 170 169 173 177 172 175 173 173 177 168 163 165 160 165 160 162 158 161 171 175 173 161 158 169 165 165 176 176 183 168 195 189 173 199 209 193 206 284 292 344 353 323 311 295 309 328 46 335 335 46 5 328 331 320 319 329 344 308 180 196 198 220 220 218 203 196 223 227 234 241 248 243 246 246 244 248 253 263 272 274 273 271 272 273
170 170 168 170 170 171 169 173 167 177 171 164 163 156 152 145 140 148 156 161 166 169 155 168 176 160 173 169 171 176 170 185 183 181 182 261 270 306 290 301 317 299 298 298 292 310 24 63 36 329 329 247 240 267 271 302 337 5 326 321 73 288 259 252 209 206 210 221 233 236 238 247 246 247 248 249 251 253 260 267 274 277 278 278 278
167 163 167 166 168 169 166 167 168 172 163 162 152 148 144 152 150 129 136 171 165 164 166 181 167 170 174 170 175 170 171 176 186 179 174 216 256 278 290 305 291 253 245 256 277 315 344 356 347 336 326 322 269 267 338 145 28 44 357 346 9 106 226 202 209 227 221 221 226 232 237 239 234 249 244 243 248 252 255 262 261 263 269 277 278
162 159 163 167 168 169 164 173 173 160 160 163 163 157 154 148 136 168 182 181 173 166 168 175 180 186 175 177 173 166 172 174 179 173 177 216 200 273 291 289 264 213 216 234 248 285 264 175 6 348 346 7 332 17 51 109 68 327 0 1 330 308 188 158 208 217 230 231 217 224 234 235 239 239 242 243 248 251 253 256 259 266 269 275 285
171 162 165 169 169 163 169 174 160 162 169 174 170 166 163 166 156 178 170 166 162 166 173 181 184 183 178 179 176 169 173 182 176 176 174 182 220 221 233 234 219 209 218 238 248 331 23 46 29 14 8 43 340 341 360 59 29 77 22 326 340 326 311 222 201 222 217 214 214 225 231 235 241 237 234 233 251 253 254 253 259 264 268 273 277
169 170 168 163 163 164 169 167 165 167 175 175 162 171 168 161 153 167 168 166 191 180 174 176 172 174 180 182 180 178 176 184 178 174 178 196 211 215 220 208 208 200 231 285 8 344 29 66 71 74 344 2 340 307 44 85 128 150 140 59 350 7 329 349 320 273 217 213 204 218 226 232 243 237 220 226 250 258 258 256 261 263 268 270 272
173 166 166 165 164 164 166 165 167 168 175 177 172 175 162 162 146 161 167 166 173 168 150 150 160 155 179 187 190 185 183 182 178 175 185 197 201 207 207 198 207 194 175 224 317 319 347 11 61 73 94 2 358 309 78 129 127 130 341 62 248 117 342 318 312 291 265 231 199 225 218 234 242 244 182 233 249 255 261 264 260 258 263 267 268
176 173 171 169 167 168 170 167 165 170 175 176 169 164 132 105 103 103 111 86 83 126 133 157 171 174 168 184 196 185 185 181 179 178 180 192 190 193 189 189 175 199 166 170 223 251 302 249 122 100 83 155 352 320 323 76 97 133 137 59 356 13 236 258 341 288 356 326 272 248 232 232 242 233 212 243 254 254 261 266 262 264 261 263 265
178 178 176 172 163 165 165 163 161 164 171 172 167 159 150 138 133 135 137 142 147 155 170 175 175 176 184 184 177 181 178 177 176 175 175 168 178 182 180 170 167 160 172 192 179 332 317 341 313 164 135 224 167 64 332 343 60 115 138 162 167 193 282 284 60 313 319 291 309 257 226 255 255 230 228 253 252 257 249 261 261 262 259 258 262
180 174 174 172 164 163 166 165 165 169 171 166 168 153 136 148 158 161 157 160 158 180 177 175 173 181 160 169 174 176 174 170 178 176 178 176 167 168 169 170 170 168 203 159 254 259 263 259 179 124 165 143 92 66 15 303 356 40 66 223 185 202 166 65 277 307 348 320 351 337 292 253 262 265 255 246 254 263 260 248 260 260 259 255 258
172 169 172 171 166 167 166 168 167 168 173 161 167 163 155 161 161 159 161 163 166 169 171 172 169 160 160 169 162 176 179 179 176 184 178 173 164 164 157 159 178 203 199 205 230 251 257 208 142 151 156 136 127 129 143 12 106 271 326 49 33 102 193 244 145 164 193 302 321 322 310 8 195 238 236 247 241 239 258 262 256 257 261 263 254
167 170 175 174 171 169 169 166 168 168 172 164 164 174 162 167 167 161 163 176 168 165 160 156 159 160 158 163 166 175 179 188 182 185 186 174 179 174 168 167 180 207 209 201 208 239 261 228 144 134 146 125 119 138 116 145 107 41 354 354 1 13 346 83 87 75 109 33 298 337 307 318 327 272 250 249 245 225 228 241 243 250 258 264 259
174 173 171 166 168 167 170 169 173 173 171 167 163 172 173 163 168 177 169 172 162 145 153 156 163 163 167 173 174 174 185 186 195 194 191 186 183 172 173 181 195 197 208 209 215 248 213 212 206 157 149 125 142 155 136 170 155 177 133 147 37 338 8 12 22 28 11 68 177 310 287 315 324 293 310 270 257 236 239 242 248 250 251 256 264
171 169 167 169 168 170 171 174 178 176 174 171 163 173 175 176 180 184 183 173 168 156 157 163 158 162 174 182 179 190 184 194 187 199 199 193 187 179 175 188 183 186 187 177 203 213 203 181 149 145 156 162 158 146 70 94 121 108 126 136 137 139 147 354 276 296 114 315 356 322 318 230 219 296 290 288 285 246 203 216 240 248 245 254 259